Regional Weather Roundup
Issued by NWS Tiyan, Guam

Home | Current Version | Previous Version | Text Only | Print | Product List | Glossary On
Versions: 1 2 3 4 5 6 7 8 9 10 11 12 13 14 15 16 17 18 19 20 21 22 23 24 25 26 27
000
ASGM40 PGUM 220812
RWRGUM
WEATHER ROUNDUP FOR THE MARIANAS
NATIONAL WEATHER SERVICE TIYAN GU
600 PM CHST WED FEB 22 2017

GUZ001>004-220900-
MARIANA ISLANDS-

CITY           SKY/WX    TMP DP  RH WIND       PRES   REMARKS
GUAM AIRPORT   CLEAR     82  73  74 E16       29.94R
ANDERSEN AFB   PTCLDY    79  72  78 E17       29.96R
ROTA AIRPORT   PTCLDY    79  72  78 E16       29.96R
TINIAN AP      MOCLDY    81  72  74 NE12      29.94S
SAIPAN AP      PTCLDY    79  72  78 NE16      29.95S

$$





USA.gov is the U.S. government's official web portal to all federal, state and local government web resources and services.